﻿TIME_UTC_SECONDS;TIME_UTC_STR;AIR_TEMP;TRACK_TEMP;HUMIDITY;PRESSURE;WIND_SPEED;WIND_DIRECTION;
1557492317;5/10/2019 12:45:17 PM;21;24.4444;55;987.606;1.06093;124;
1557492377;5/10/2019 12:46:17 PM;21.0556;24.4444;56;987.539;4.24374;115;
1557492437;5/10/2019 12:47:17 PM;21;24.4444;56;987.539;5.30467;106;
1557492497;5/10/2019 12:48:17 PM;21;24.4444;56;987.505;4.24374;110;
1557492558;5/10/2019 12:49:18 PM;20.8889;24.4444;56;987.471;2.12187;136;
1557492618;5/10/2019 12:50:18 PM;20.7778;24.4444;55;987.539;2.12187;227;
1557492678;5/10/2019 12:51:18 PM;20.7778;24.4444;56;987.505;4.24374;192;
1557492738;5/10/2019 12:52:18 PM;20.8889;25;57;987.539;3.1828;131;
1557492798;5/10/2019 12:53:18 PM;21;25;56;987.539;4.24374;109;
1557492858;5/10/2019 12:54:18 PM;20.8889;25;55;987.539;6.3656;132;
1557492918;5/10/2019 12:55:18 PM;20.8333;25;56;987.539;3.1828;129;
1557492978;5/10/2019 12:56:18 PM;20.8333;25;57;987.573;1.06093;180;
1557493038;5/10/2019 12:57:18 PM;21;25;56;987.573;2.12187;146;
1557493098;5/10/2019 12:58:18 PM;21.1667;25;57;987.573;3.1828;187;
1557493158;5/10/2019 12:59:18 PM;21.2778;25;56;987.539;3.1828;192;
1557493219;5/10/2019 1:00:19 PM;21.3889;25;55;987.539;2.12187;34;
1557493279;5/10/2019 1:01:19 PM;21.5556;25;55;987.539;4.24374;147;
1557493339;5/10/2019 1:02:19 PM;21.6667;25;54;987.539;3.1828;210;
1557493399;5/10/2019 1:03:19 PM;21.6667;25.5556;55;987.539;4.24374;150;
1557493459;5/10/2019 1:04:19 PM;21.6667;25.5556;54;987.539;5.30467;123;
1557493519;5/10/2019 1:05:19 PM;21.5556;25.5556;53;987.471;5.30467;145;
1557493579;5/10/2019 1:06:19 PM;21.6111;25.5556;54;987.539;3.1828;167;
1557493639;5/10/2019 1:07:19 PM;21.5;25.5556;53;987.505;5.30467;145;
1557493699;5/10/2019 1:08:19 PM;21.4444;25.5556;54;987.471;3.1828;150;
1557493759;5/10/2019 1:09:19 PM;21.3889;25.5556;54;987.505;2.12187;95;
1557493819;5/10/2019 1:10:19 PM;21.4444;25.5556;54;987.471;2.12187;320;
1557493880;5/10/2019 1:11:20 PM;21.4444;25.5556;54;987.471;0;319;
1557493940;5/10/2019 1:12:20 PM;21.6111;25.5556;54;987.471;3.1828;110;
1557494000;5/10/2019 1:13:20 PM;21.6111;0;54;987.471;6.3656;125;
1557494060;5/10/2019 1:14:20 PM;21.6111;0;55;987.471;3.1828;186;
1557494120;5/10/2019 1:15:20 PM;21.7222;0;55;987.471;4.24374;164;
1557494180;5/10/2019 1:16:20 PM;21.4444;0;53;987.505;1.06093;163;
1557494240;5/10/2019 1:17:20 PM;21.3333;0;54;987.505;3.1828;112;
1557494300;5/10/2019 1:18:20 PM;21.3333;0;54;987.539;2.12187;139;
1557494360;5/10/2019 1:19:20 PM;21.3889;0;55;987.539;4.24374;132;
1557494420;5/10/2019 1:20:20 PM;21.5;0;55;987.539;3.1828;178;
1557494480;5/10/2019 1:21:20 PM;21.6111;0;55;987.539;2.12187;155;
1557494541;5/10/2019 1:22:21 PM;21.6667;0;55;987.505;5.30467;152;
1557494601;5/10/2019 1:23:21 PM;21.8333;0;54;987.539;6.3656;140;
1557494661;5/10/2019 1:24:21 PM;21.8333;0;53;987.573;4.24374;121;
